Punkttermin-Prognose für Emden
Modell: MOSMIX (Deutscher Wetterdienst)
Modelllaufzeit: 02 UTC
Aktualisierung: stündlich
Sonntag - 07.06.2020
| Wetter - | Temperaturen | Wind | Niederschlag | Druck | Sonne
Zeit GZ | Bewölkung | TT MAX MIN TG TM | DD FF FX1 | RR1 RR24 | PPPP | SS1 SS24
02:00 Uhr | --- | --- --- --- --- --- | --- --- --- | --- | --- | ---
03:00 Uhr | --- | --- --- --- --- --- | --- --- --- | --- | --- | ---
04:00 Uhr | --- | --- --- --- --- --- | --- --- --- | --- | --- | ---
05:00 Uhr | stark bewölkt | 11 --- --- 10 --- | S 18 --- | 0.0 | 1000 | 0.0
06:00 Uhr | wolkig | 11 --- --- 10 --- | S 20 --- | 0.0 | 1000 | 0.1
07:00 Uhr | wolkig | 11 --- --- 11 --- | S 22 --- | 0.0 | 1000 | 0.1
08:00 Uhr | stark bewölkt | 12 --- 11 12 --- | S 22 --- | 0.0 | 1000 | 0.1
09:00 Uhr | stark bewölkt | 12 --- --- 13 --- | S 24 43 | 0.0 | 1001 | 0.2
10:00 Uhr | leichter Regen | 13 --- --- 14 --- | S 24 --- | 0.1 | 1001 | 0.2
11:00 Uhr | starker Regenschauer | 14 --- --- 15 --- | SW 22 44 | 0.2 | 1002 | 0.2
12:00 Uhr | starker Regenschauer | 14 --- --- 16 --- | SW 22 46 | 0.3 | 1002 | 0.3
13:00 Uhr | starker Regenschauer | 15 --- --- 16 --- | SW 22 46 | 0.4 | 1003 | 0.3
14:00 Uhr | starker Regenschauer | 15 --- --- 16 --- | W 22 46 | 0.5 | 1004 | 0.3
15:00 Uhr | starker Regenschauer | 15 --- --- 16 --- | W 24 48 | 0.5 | 1005 | 0.4
16:00 Uhr | starker Regenschauer | 15 --- --- 16 --- | W 28 48 | 0.4 | 1006 | 0.5
17:00 Uhr | starker Regenschauer | 15 --- --- 16 --- | W 28 46 | 0.3 | 1006 | 0.5
18:00 Uhr | Regenschauer | 15 --- --- 16 --- | W 28 46 | 0.2 | 1007 | 0.5
19:00 Uhr | wolkig | 14 --- --- 15 --- | W 26 44 | 0.0 | 1008 | 0.5
20:00 Uhr | wolkig | 14 16 --- 14 --- | W 24 41 | 0.0 | 1009 | 0.4
21:00 Uhr | wolkig | 13 --- --- 13 --- | W 22 --- | 0.0 | 1010 | 0.3
22:00 Uhr | wolkig | 13 --- --- 12 --- | W 20 --- | 0.0 | 1010 | 0.2
23:00 Uhr | wolkig | 12 --- --- 11 --- | W 17 --- | 0.0 | 1011 | 0.0
Montag - 08.06.2020
| Wetter - | Temperaturen | Wind | Niederschlag | Druck | Sonne
Zeit GZ | Bewölkung | TT MAX MIN TG TM | DD FF FX1 | RR1 RR24 | PPPP | SS1 SS24
00:00 Uhr | wolkig | 12 --- --- 11 --- | W 15 --- | 0.0 | 1011 | 0.0
01:00 Uhr | wolkig | 12 --- --- 11 --- | W 13 --- | 0.0 | 1011 | 0.0
02:00 Uhr | wolkig | 12 --- --- 10 --- | W 13 --- | 0.0 | 1012 | 0.0
03:00 Uhr | wolkig | 12 --- --- 10 --- | W 13 --- | 0.0 | 1012 | 0.0
04:00 Uhr | wolkig | 12 --- --- 10 --- | W 13 --- | 0.0 | 1012 | 0.0
05:00 Uhr | wolkig | 12 --- --- 11 --- | W 11 --- | 0.0 | 1012 | 0.0
06:00 Uhr | wolkig | 12 --- --- 11 --- | W 11 --- | 0.0 | 1012 | 0.1
07:00 Uhr | wolkig | 12 --- --- 12 --- | W 11 --- | 0.0 | 1013 | 0.1
08:00 Uhr | wolkig | 13 --- 11 13 --- | NW 13 --- | 0.0 | 1013 | 0.2
09:00 Uhr | wolkig | 13 --- --- 15 --- | NW 13 --- | 0.0 | 1014 | 0.2
10:00 Uhr | wolkig | 13 --- --- 16 --- | N 15 --- | 0.0 | 1015 | 0.3
11:00 Uhr | wolkig | 13 --- --- 17 --- | N 15 --- | 0.0 | 1015 | 0.3
12:00 Uhr | wolkig | 14 --- --- 18 --- | N 18 --- | 0.0 | 1016 | 0.4
13:00 Uhr | wolkig | 14 --- --- 18 --- | N 18 --- | 0.0 | 1016 | 0.4
14:00 Uhr | wolkig | 14 --- --- 18 --- | N 22 --- | 0.0 | 1016 | 0.5
15:00 Uhr | wolkig | 14 --- --- 18 --- | N 22 --- | 0.0 | 1016 | 0.5
16:00 Uhr | wolkig | 14 --- --- 17 --- | N 22 --- | 0.0 | 1016 | 0.5
17:00 Uhr | wolkig | 13 --- --- 16 --- | N 24 --- | 0.0 | 1017 | 0.5
18:00 Uhr | wolkig | 13 --- --- 16 --- | N 24 --- | 0.0 | 1017 | 0.6
19:00 Uhr | wolkig | 12 --- --- 14 --- | N 24 --- | 0.0 | 1017 | 0.5
20:00 Uhr | wolkig | 12 15 --- 13 --- | N 24 --- | 0.0 | 1017 | 0.5
21:00 Uhr | wolkig | 12 --- --- 12 --- | N 24 --- | 0.0 | 1018 | 0.3
22:00 Uhr | wolkig | 11 --- --- 11 --- | N 24 --- | 0.0 | 1018 | 0.2
23:00 Uhr | wolkig | 11 --- --- 10 12 | N 22 --- | 0.0 0.0 | 1018 | 0.0 6.1
Dienstag - 09.06.2020
| Wetter - | Temperaturen | Wind | Niederschlag | Druck | Sonne
Zeit GZ | Bewölkung | TT MAX MIN TG TM | DD FF FX1 | RR1 RR24 | PPPP | SS1 SS24
00:00 Uhr | wolkig | 11 --- --- 10 --- | N 20 --- | 0.0 | 1019 | 0.0
01:00 Uhr | wolkig | 10 --- --- 9 --- | N 20 --- | 0.0 | 1019 | 0.0
02:00 Uhr | wolkig | 10 --- --- 9 --- | N 18 --- | 0.0 | 1018 | 0.0
03:00 Uhr | wolkig | 10 --- --- 9 --- | N 18 --- | 0.0 | 1018 | 0.0
04:00 Uhr | wolkig | 10 --- --- 9 --- | N 18 --- | 0.0 | 1018 | 0.0
05:00 Uhr | wolkig | 10 --- --- 9 --- | N 18 --- | 0.0 | 1019 | 0.0
06:00 Uhr | wolkig | 10 --- --- 10 --- | N 17 --- | 0.0 | 1019 | 0.1
07:00 Uhr | wolkig | 11 --- --- 11 --- | N 17 --- | 0.0 | 1019 | 0.2
08:00 Uhr | wolkig | 12 --- 10 12 --- | N 17 --- | 0.0 | 1019 | 0.2
09:00 Uhr | wolkig | 12 --- --- 14 --- | N 17 --- | 0.0 | 1020 | 0.2
10:00 Uhr | wolkig | 12 --- --- 15 --- | N 17 --- | 0.0 | 1020 | 0.2
11:00 Uhr | wolkig | 13 --- --- 16 --- | N 17 --- | 0.0 | 1020 | 0.3
12:00 Uhr | wolkig | 13 --- --- 17 --- | N 17 --- | 0.0 | 1020 | 0.3
13:00 Uhr | wolkig | 13 --- --- 18 --- | N 17 --- | 0.0 | 1020 | 0.4
14:00 Uhr | wolkig | 13 --- --- 18 --- | N 18 --- | 0.0 | 1020 | 0.5
15:00 Uhr | wolkig | 13 --- --- 18 --- | N 18 --- | 0.0 | 1020 | 0.5
16:00 Uhr | wolkig | 13 --- --- 17 --- | N 20 --- | 0.0 | 1020 | 0.5
17:00 Uhr | wolkig | 13 --- --- 17 --- | N 20 --- | 0.0 | 1020 | 0.5
18:00 Uhr | wolkig | 13 --- --- 16 --- | N 20 --- | 0.0 | 1020 | 0.5
19:00 Uhr | wolkig | 12 --- --- 14 --- | N 20 --- | 0.0 | 1020 | 0.5
20:00 Uhr | wolkig | 12 14 --- 13 --- | N 18 --- | 0.0 | 1020 | 0.4
21:00 Uhr | wolkig | 12 --- --- 11 --- | NO 17 --- | 0.0 | 1020 | 0.3
22:00 Uhr | wolkig | 11 --- --- 10 --- | NO 17 --- | 0.0 | 1020 | 0.2
23:00 Uhr | wolkig | 11 --- --- 10 12 | NO 15 --- | 0.0 0.0 | 1021 | 0.0 5.7
Mittwoch - 10.06.2020
| Wetter - | Temperaturen | Wind | Niederschlag | Druck | Sonne
Zeit GZ | Bewölkung | TT MAX MIN TG TM | DD FF FX3 | RR3 RR24 | PPPP | SS3 SS24
02:00 Uhr | wolkig | 11 --- --- 9 --- | NO 13 --- | 0.0 | 1020 | 0.0
05:00 Uhr | wolkig | 10 --- --- 9 --- | NO 11 --- | 0.0 | 1020 | 0.0
08:00 Uhr | wolkig | 12 --- 10 12 --- | NO 11 --- | 0.0 | 1020 | 0.8
11:00 Uhr | wolkig | 14 --- --- 18 --- | NO 15 --- | 0.0 | 1019 | 1.3
14:00 Uhr | wolkig | 14 --- --- 20 --- | NO 17 --- | 0.0 | 1019 | 1.8
17:00 Uhr | wolkig | 14 --- --- 18 --- | NO 20 --- | 0.0 | 1018 | 1.9
20:00 Uhr | wolkig | 13 15 --- 14 --- | NO 20 --- | 0.0 | 1018 | 1.5
23:00 Uhr | stark bewölkt | 12 --- --- 12 13 | NO 20 --- | 0.0 0.0 | 1017 | 0.5 7.7
Donnerstag - 11.06.2020
| Wetter - | Temperaturen | Wind | Niederschlag | Druck | Sonne
Zeit GZ | Bewölkung | TT MAX MIN TG TM | DD FF FX3 | RR3 RR24 | PPPP | SS3 SS24
02:00 Uhr | stark bewölkt | 12 --- --- 11 --- | NO 18 --- | 0.0 | 1017 | 0.0
05:00 Uhr | stark bewölkt | 12 --- --- 11 --- | NO 18 --- | 0.0 | 1017 | 0.0
08:00 Uhr | wolkig | 13 --- 11 13 --- | NO 18 --- | 0.0 | 1017 | 0.5
11:00 Uhr | wolkig | 14 --- --- 17 --- | N 22 --- | 0.0 | 1017 | 1.0
14:00 Uhr | wolkig | 15 --- --- 19 --- | N 24 --- | 0.0 | 1016 | 1.3
17:00 Uhr | wolkig | 15 --- --- 18 --- | N 26 --- | 0.0 | 1015 | 1.5
20:00 Uhr | wolkig | 15 17 --- 16 --- | N 24 --- | 0.0 | 1014 | 1.3
23:00 Uhr | wolkig | 14 --- --- 14 14 | N 24 --- | 0.0 0.0 | 1014 | 0.3 5.8
Freitag - 12.06.2020
| Wetter - | Temperaturen | Wind | Niederschlag | Druck | Sonne
Zeit GZ | Bewölkung | TT MAX MIN TG TM | DD FF FX3 | RR3 RR24 | PPPP | SS3 SS24
02:00 Uhr | stark bewölkt | 14 --- --- 14 --- | NO 24 --- | 0.0 | 1014 | 0.0
05:00 Uhr | stark bewölkt | 14 --- --- 13 --- | N 22 --- | 0.0 | 1013 | 0.0
08:00 Uhr | stark bewölkt | 14 --- 13 15 --- | NO 22 --- | 0.0 | 1012 | 0.3
11:00 Uhr | wolkig | 15 --- --- 18 --- | NO 20 --- | 0.0 | 1012 | 0.6
14:00 Uhr | wolkig | 16 --- --- 20 --- | NO 24 --- | 0.0 | 1012 | 1.1
17:00 Uhr | wolkig | 17 --- --- 19 --- | NO 26 --- | 0.0 | 1012 | 1.4
20:00 Uhr | wolkig | 16 18 --- 17 --- | NO 26 --- | 0.0 | 1011 | 1.3
23:00 Uhr | wolkig | 15 --- --- 15 15 | NO 22 --- | 0.0 0.0 | 1013 | 0.4 5.0
Samstag - 13.06.2020
| Wetter - | Temperaturen | Wind | Niederschlag | Druck | Sonne
Zeit GZ | Bewölkung | TT MAX MIN TG TM | DD FF FX3 | RR3 RR24 | PPPP | SS3 SS24
02:00 Uhr | wolkig | 15 --- --- 15 --- | NO 22 --- | 0.0 | 1013 | 0.0
05:00 Uhr | wolkig | 14 --- --- 14 --- | NO 18 --- | 0.0 | 1012 | 0.0
08:00 Uhr | wolkig | 15 --- 14 16 --- | NO 20 --- | 0.0 | 1012 | 0.6
11:00 Uhr | wolkig | 17 --- --- 20 --- | NO 20 --- | 0.0 | 1012 | 1.1
14:00 Uhr | wolkig | 18 --- --- 22 --- | NO 22 --- | 0.0 | 1013 | 1.4
17:00 Uhr | wolkig | 18 --- --- 21 --- | N 24 --- | 0.0 | 1012 | 1.5
20:00 Uhr | wolkig | 17 19 --- 18 --- | N 26 --- | 0.0 | 1012 | 1.3
23:00 Uhr | wolkig | 16 --- --- 16 16 | NO 24 --- | 0.0 0.0 | 1012 | 0.4 6.3
Sonntag - 14.06.2020
| Wetter - | Temperaturen | Wind | Niederschlag | Druck | Sonne
Zeit GZ | Bewölkung | TT MAX MIN TG TM | DD FF FX3 | RR3 RR24 | PPPP | SS3 SS24
02:00 Uhr | wolkig | 15 --- --- 15 --- | NO 22 --- | 0.0 | 1012 | 0.0
05:00 Uhr | wolkig | 15 --- --- 15 --- | N 22 --- | 0.0 | 1012 | 0.0
08:00 Uhr | wolkig | 16 --- 15 17 --- | N 24 --- | 0.0 | 1012 | 0.5
11:00 Uhr | wolkig | 17 --- --- 21 --- | N 24 --- | 0.0 | 1012 | 1.1
14:00 Uhr | wolkig | 18 --- --- 24 --- | N 26 --- | 0.0 | 1013 | 1.4
17:00 Uhr | wolkig | 18 --- --- 22 --- | N 24 --- | 0.0 | 1013 | 1.4
20:00 Uhr | wolkig | 17 19 --- 18 --- | N 26 --- | 0.0 | 1013 | 1.2
23:00 Uhr | wolkig | 16 --- --- 16 17 | N 24 --- | 0.0 0.0 | 1013 | 0.5 6.1
Montag - 15.06.2020
| Wetter - | Temperaturen | Wind | Niederschlag | Druck | Sonne
Zeit GZ | Bewölkung | TT MAX MIN TG TM | DD FF FX3 | RR3 RR24 | PPPP | SS3 SS24
02:00 Uhr | wolkig | 16 --- --- 16 --- | N 22 --- | 0.0 | 1013 | 0.0
05:00 Uhr | wolkig | 15 --- --- 15 --- | N 24 --- | 0.0 | 1013 | 0.0
08:00 Uhr | wolkig | 16 --- 15 17 --- | N 22 --- | 0.0 | 1013 | 0.6
11:00 Uhr | wolkig | 17 --- --- 22 --- | N 22 --- | 0.0 | 1014 | 1.2
14:00 Uhr | wolkig | 18 --- --- 24 --- | N 24 --- | 0.0 | 1014 | 1.5
17:00 Uhr | wolkig | 18 --- --- 22 --- | N 24 --- | 0.0 | 1014 | 1.6
20:00 Uhr | wolkig | 17 20 --- 19 --- | N 24 --- | 0.0 | 1014 | 1.4
23:00 Uhr | wolkig | 17 --- --- 16 17 | N 22 --- | 0.0 0.0 | 1015 | 0.5 6.9
Dienstag - 16.06.2020
| Wetter - | Temperaturen | Wind | Niederschlag | Druck | Sonne
Zeit GZ | Bewölkung | TT MAX MIN TG TM | DD FF FX3 | RR3 RR24 | PPPP | SS3 SS24
02:00 Uhr | wolkig | 16 --- --- 15 --- | N 20 --- | 0.0 | 1015 | 0.0
05:00 Uhr | wolkig | 15 --- --- 15 --- | N 22 --- | 0.0 | 1014 | 0.0
08:00 Uhr | wolkig | 16 --- 15 17 --- | NW 22 --- | 0.0 | 1014 | 0.6
11:00 Uhr | wolkig | 18 --- --- 22 --- | NW 22 --- | 0.0 | 1015 | 1.3
14:00 Uhr | wolkig | 19 --- --- 24 --- | N 24 --- | 0.0 | 1015 | 1.4
17:00 Uhr | wolkig | 19 --- --- 23 --- | N 24 --- | 0.0 | 1015 | 1.6
20:00 Uhr | wolkig | 18 21 --- 20 --- | N 22 --- | 0.0 | 1015 | 1.5
23:00 Uhr | wolkig | 18 --- --- 17 18 | N 18 --- | 0.0 0.0 | 1016 | 0.5 6.9
Mittwoch - 17.06.2020
| Wetter - | Temperaturen | Wind | Niederschlag | Druck | Sonne
Zeit GZ | Bewölkung | TT MAX MIN TG TM | DD FF FX3 | RR3 RR24 | PPPP | SS3 SS24
02:00 Uhr | wolkig | 18 --- --- 16 --- | N 18 --- | 0.0 | 1016 | 0.0
---:00 Uhr | --- | --- --- --- --- --- | --- --- --- | --- | --- | ---
---:00 Uhr | --- | --- --- --- --- --- | --- --- --- | --- | --- | ---
---:00 Uhr | --- | --- --- --- --- --- | --- --- --- | --- | --- | ---
---:00 Uhr | --- | --- --- --- --- --- | --- --- --- | --- | --- | ---
---:00 Uhr | --- | --- --- --- --- --- | --- --- --- | --- | --- | ---
---:00 Uhr | --- | --- --- --- --- --- | --- --- --- | --- | --- | ---
---:00 Uhr | --- | --- --- --- --- --- | --- --- --- | --- --- | --- | ---


Wetter : Wetter/Bewölkung zum Termin (aktuelle Stunde) TT : Lufttemperatur in Grad Celsius zum Termin MAX : Maximum Lufttemperatur in Grad Celsius letzte 12 Stunden MIN : Minimum Lufttemperatur der vergangenen Nacht in Grad Celsius letzte 12 Stunden TG : Temperatur in 5cm überm Erdboden TM : Tagesmittel Lufttemperatur in Grad Celsius letzte 24 Stunden DD : Windrichtung zum Termin FF : Windgeschwindigkeit zum Termin FX1 : höchste Windspitze im Bezugszeitraum letzte 1 Stunde in km/h FX3 : höchste Windspitze im Bezugszeitraum letzte 3 Stunden in km/h PPPP : reduzierter Luftdruck auf Meereshöhe in hPa zum Termin RR1 : Niederschlagsmenge im Bezugszeitraum letzte 1 Stunde in mm = l/qm RR3 : Niederschlagsmenge im Bezugszeitraum letzte 3 Stunden in mm = l/qm RR24 : Niederschlagsmenge im Bezugszeitraum letzte 24 Stunden in mm = l/qm SS1 : Sonnenscheindauer letzte 1 Stunde SS3 : Sonnenscheindauer letzte 3 Stunden SS24 : Sonnenscheindauer letzte 24 Stunden --- : Wert nicht vorhanden